[[{"header":{"parameterUnit":"m.s-1","parameterCategory":1,"la1":30.2991,"la2":30.254,"lo1":-89.0895,"lo2":-89.0444,"dy":0.0017,"dx":0.0017,"nx":28,"ny":28,"refTime":"2024-05-31T21:00:00:Z","depth":0,"parameterNumber":2,"parameterNumberName":"U-component_of_WINDS"},"data":[0,0,0,0,0,0,0,0,0,0,0,0,0,0,0,0,0,0,0,0,0,0,0,0,0,0,0,0,0,0,0,0,0,0,0,0,0,0,0,0,0,0,0,0,0,0,0,0,0,0,0,0,0,0,0,0,0,0,0.2649,0.2648,0,0.2582,0.2581,0.258,0.2508,0.2507,0.2506,0.2505,0.2435,0.2434,0.2433,0,0,0,0,0,0,0,0,0,0,0,0,0,0.2715,0.2714,0.2649,0.2648,0.2647,0.2582,0.2581,0.258,0.2508,0.2507,0.2506,0.2505,0.2435,0.2434,0.2433,0,0,0,0,0,0,0,0,0,0,0,0,0,0.2671,0.2714,0.2649,0.2603,0.2599,0.2582,0.2581,0.258,0.2509,0.2507,0.2505,0.2504,0.2436,0.2434,0.2433,0.2455,0,0,0.2429,0.2428,0,0,0,0,0,0,0,0,0.2673,0.2668,0.2611,0.2607,0.2601,0.2552,0.2578,0.2538,0.2509,0.2543,0.2505,0.2503,0.2475,0.247,0.2461,0.2452,0.2449,0.2429,0.2428,0.2427,0.2427,0,0,0,0,0,0,0,0.2676,0.2671,0.2622,0.261,0.2604,0.2586,0.2578,0.257,0.2518,0.254,0.2534,0.2527,0.2472,0.2463,0.2459,0.2448,0.2429,0.2427,0.2427,0.2426,0.2455,0.2457,0,0,0,0,0,0,0.2686,0.2674,0.2624,0.262,0.2634,0.2587,0.2578,0.2569,0.2518,0.2509,0.2529,0.2524,0.2466,0.2461,0.2456,0.248,0.2427,0.2426,0.2425,0.2453,0.2455,0.2457,0,0,0,0,0,0,0.2688,0.2683,0.2627,0.2645,0.2637,0.2587,0.2578,0.2569,0.2559,0.251,0.25,0.2529,0.2464,0.2458,0.2456,0.2476,0.2425,0.2424,0.2452,0.2454,0.2456,0.2526,0,0,0,0,0,0,0.269,0.2684,0.2691,0.2646,0.2636,0.2628,0.2579,0.2568,0.2557,0.255,0.2507,0.2499,0.2463,0.2459,0.2455,0.2473,0.2423,0.245,0.2453,0.2456,0.2522,0.2531,0.2539,0,0,0,0,0,0.2693,0.2713,0.2692,0.2687,0.2645,0.263,0.2624,0.2583,0.2559,0.2566,0.2535,0.25,0.2475,0.2459,0.2454,0.2473,0.2448,0.2452,0.2455,0.2518,0.2529,0.2538,0,0,0,0,0,0,0.2761,0.2706,0.2682,0.2688,0.2665,0.2618,0.2625,0.2595,0.2577,0.2571,0.252,0.2511,0.2516,0.2494,0.2478,0.2492,0.2457,0.2459,0.2506,0.2516,0.2524,0.2529,0.2422,0,0,0,0,0,0.2777,0.2769,0.2722,0.2732,0.2721,0.2676,0.2667,0.2638,0.2611,0.26,0.2568,0.2543,0.2529,0.2521,0.2506,0.2519,0.2509,0.2529,0.2537,0.2544,0.2547,0.2554,0.2563,0.2469,0.2469,0.2469,0,0,0.2809,0.2778,0.2776,0.2745,0.2722,0.2716,0.2667,0.2662,0.2657,0.2599,0.2596,0.2572,0.254,0.2547,0.2548,0.2528,0.2571,0.2549,0.2555,0.2554,0.2559,0.2567,0.2575,0.2471,0.2471,0.2471,0,0,0.2865,0.284,0.2847,0.2826,0.2794,0.2764,0.2766,0.2724,0.2706,0.2703,0.2659,0.2653,0.263,0.261,0.2597,0.2648,0.2615,0.2644,0.2686,0.2694,0.2701,0.2707,0.2726,0.2734,0.2647,0.2647,0.2647,0,0.2908,0.2897,0.2854,0.2852,0.284,0.2788,0.2795,0.2777,0.2741,0.2734,0.2713,0.2685,0.266,0.2661,0.2674,0.2665,0.2666,0.2648,0.2704,0.2709,0.2715,0.2732,0.274,0.2651,0.2651,0.265,0.265,0,0.2953,0.2946,0.2956,0.2924,0.2912,0.2915,0.2872,0.2866,0.2838,0.2811,0.2809,0.2778,0.2756,0.2754,0.2726,0.2752,0.2741,0.2713,0.2676,0.2728,0.2744,0.275,0.2657,0.2655,0.2654,0.2653,0,0,0.3048,0.2994,0.2998,0.2984,0.2945,0.2939,0.294,0.292,0.2916,0.2894,0.2893,0.2877,0.2851,0.2836,0.2805,0.2812,0.2856,0.2782,0.2781,0.2798,0.2884,0.2906,0.2914,0.2834,0.2835,0.2836,0.2887,0,0.3097,0.3095,0.3058,0.3067,0.306,0.3013,0.3013,0.299,0.2965,0.2956,0.2928,0.2918,0.2884,0.2875,0.2879,0.285,0.2872,0.2845,0.2834,0.2834,0.2843,0.2922,0.2945,0.2994,0.2893,0.2894,0.2894,0,0.3153,0.3136,0.3145,0.3108,0.3104,0.3106,0.3085,0.3077,0.3051,0.3032,0.3017,0.2983,0.2982,0.2948,0.2946,0.2928,0.2921,0.2907,0.2907,0.2905,0.2867,0.2922,0.3009,0.3017,0.2903,0.2903,0.2902,0,0.3223,0.3201,0.3204,0.3193,0.3151,0.3153,0.3135,0.3107,0.3098,0.308,0.3074,0.3056,0.3046,0.3033,0.2996,0.2974,0.2999,0.2961,0.2984,0.2985,0.299,0.2991,0.3078,0.2986,0.2986,0.2986,0.2986,0,0.3281,0.3289,0.3235,0.3237,0.3244,0.3201,0.321,0.3188,0.3164,0.3161,0.3118,0.3116,0.3067,0.306,0.303,0.3034,0.303,0.3015,0.3007,0.3019,0.3021,0.3013,0.3009,0.2988,0.2987,0.2987,0.2987,0,0.3359,0.3323,0.3324,0.3284,0.3274,0.3282,0.3248,0.3248,0.3222,0.3219,0.3215,0.3174,0.3163,0.3125,0.3104,0.3085,0.3098,0.3083,0.3107,0.3102,0.3128,0.3126,0.3213,0.3223,0.3125,0.3126,0.3127,0,0.3399,0.3404,0.3365,0.3361,0.3345,0.3338,0.3329,0.3288,0.3281,0.3252,0.3256,0.3243,0.323,0.3216,0.3183,0.3168,0.3152,0.3184,0.3149,0.3162,0.3153,0.3154,0.3155,0.3191,0.3193,0.3194,0.3194,0,0.3473,0.3456,0.3445,0.3429,0.342,0.3405,0.3388,0.3386,0.334,0.3334,0.3324,0.3314,0.3295,0.3282,0.3262,0.3244,0.3212,0.3206,0.321,0.3222,0.3237,0.323,0.3128,0.3204,0.3203,0.3202,0.3202,0.3201,0.3533,0.3536,0.351,0.35,0.3483,0.3469,0.3468,0.3442,0.3433,0.3414,0.3391,0.3384,0.3359,0.3329,0.3313,0.3307,0.329,0.3296,0.3298,0.33,0.3306,0.3238,0.3304,0.3303,0.3303,0.3303,0.3302,0,0.3606,0.3588,0.3579,0.3557,0.355,0.3522,0.3501,0.3497,0.3492,0.3472,0.346,0.3449,0.3438,0.3406,0.3391,0.3393,0.3378,0.339,0.339,0.3386,0.3322,0.332,0.3403,0.3403,0.3403,0.3403,0.3403,0.3403,0.3643,0.3647,0.3627,0.3623,0.3604,0.3598,0.3589,0.3576,0.356,0.355,0.354,0.352,0.3495,0.3479,0.3468,0.3459,0.3455,0.3473,0.3459,0.34,0.339,0.3381,0.3379,0.3472,0.3472,0.3523,0.3524,0.3524]},{"header":{"parameterUnit":"m.s-1","parameterCategory":1,"la1":30.2991,"la2":30.254,"lo1":-89.0895,"lo2":-89.0444,"dy":0.0017,"dx":0.0017,"nx":28,"ny":28,"refTime":"2024-05-31T21:00:00:Z","depth":0,"parameterNumber":3,"parameterNumberName":"V-component_of_WINDS"},"data":[0,0,0,0,0,0,0,0,0,0,0,0,0,0,0,0,0,0,0,0,0,0,0,0,0,0,0,0,0,0,0,0,0,0,0,0,0,0,0,0,0,0,0,0,0,0,0,0,0,0,0,0,0,0,0,0,0,0,2.9836,2.9837,0,2.9854,2.9854,2.9854,2.9884,2.9885,2.9885,2.9886,2.99,2.99,2.9899,0,0,0,0,0,0,0,0,0,0,0,0,0,2.9826,2.9826,2.9836,2.9837,2.9837,2.9854,2.9854,2.9854,2.9884,2.9885,2.9885,2.9886,2.99,2.99,2.9899,0,0,0,0,0,0,0,0,0,0,0,0,0,2.9836,2.9826,2.9836,2.9854,2.9856,2.9854,2.9854,2.9854,2.9884,2.9885,2.9885,2.9886,2.99,2.99,2.9899,2.9881,0,0,2.9899,2.9899,0,0,0,0,0,0,0,0,2.9835,2.9836,2.9851,2.9853,2.9855,2.9868,2.9856,2.9863,2.9883,2.9873,2.9886,2.9887,2.9888,2.9889,2.989,2.9882,2.9882,2.9899,2.9899,2.9898,2.9898,0,0,0,0,0,0,0,2.9835,2.9836,2.9843,2.9851,2.9853,2.986,2.9862,2.9857,2.9875,2.9874,2.9876,2.9878,2.9889,2.989,2.9891,2.9882,2.9899,2.9899,2.9898,2.9898,2.986,2.9859,0,0,0,0,0,0,2.9832,2.9835,2.9843,2.9844,2.9847,2.9859,2.9862,2.9863,2.9876,2.9878,2.9877,2.9879,2.989,2.9891,2.9891,2.9871,2.9898,2.9898,2.9898,2.9861,2.986,2.9859,0,0,0,0,0,0,2.9831,2.9832,2.9842,2.984,2.9842,2.9859,2.9859,2.9862,2.9864,2.9878,2.9881,2.9875,2.9891,2.9892,2.9884,2.9871,2.9898,2.9898,2.9862,2.986,2.9859,2.9829,0,0,0,0,0,0,2.9831,2.9832,2.9826,2.984,2.9842,2.9835,2.9858,2.9862,2.9864,2.9866,2.9877,2.988,2.9892,2.9884,2.9883,2.9872,2.9898,2.9863,2.9861,2.986,2.9831,2.9827,2.9823,0,0,0,0,0,2.9831,2.9815,2.9825,2.9826,2.9834,2.9834,2.9835,2.985,2.9862,2.9856,2.9865,2.9879,2.9873,2.9883,2.9883,2.987,2.9864,2.9862,2.986,2.9833,2.9827,2.9823,0,0,0,0,0,0,2.9798,2.9818,2.9828,2.9818,2.9824,2.9839,2.9831,2.9844,2.9846,2.9849,2.9867,2.9869,2.9858,2.9864,2.9874,2.9854,2.9871,2.9868,2.985,2.9845,2.9841,2.984,2.9898,0,0,0,0,0,2.979,2.9789,2.9806,2.9794,2.9797,2.9814,2.9814,2.9825,2.9832,2.9835,2.9844,2.9849,2.9848,2.9847,2.9847,2.9832,2.9835,2.9824,2.982,2.9817,2.9814,2.9806,2.9802,2.9852,2.9852,2.9852,0,0,2.9772,2.9783,2.9781,2.9788,2.9794,2.9792,2.9815,2.9812,2.981,2.9834,2.9827,2.9834,2.9841,2.9829,2.9824,2.9833,2.9801,2.9814,2.9811,2.9811,2.9804,2.9799,2.9795,2.9851,2.9851,2.9851,0,0,2.9739,2.9747,2.9739,2.9745,2.9755,2.9766,2.9764,2.9778,2.9783,2.9777,2.9795,2.9793,2.9792,2.9796,2.9798,2.9768,2.978,2.9767,2.9746,2.9738,2.9734,2.9731,2.9719,2.9715,2.9765,2.9765,2.9765,0,2.9715,2.9713,2.9732,2.9728,2.9731,2.9754,2.9745,2.975,2.9759,2.976,2.977,2.9769,2.9776,2.9765,2.9758,2.9759,2.9757,2.9766,2.9733,2.973,2.9727,2.9717,2.9712,2.9763,2.9764,2.9764,2.9764,0,2.9684,2.9682,2.9674,2.9684,2.9686,2.9679,2.9696,2.9696,2.9708,2.9718,2.9711,2.972,2.9722,2.9721,2.9732,2.9712,2.9717,2.973,2.9748,2.972,2.9711,2.9707,2.9761,2.9762,2.9762,2.9762,0,0,2.9629,2.965,2.9647,2.9652,2.9665,2.9664,2.9659,2.9663,2.9661,2.9667,2.9662,2.9661,2.9674,2.9676,2.9688,2.9681,2.9656,2.9695,2.9695,2.9687,2.9635,2.9624,2.9619,2.9665,2.9665,2.9664,2.9634,0,2.9597,2.959,2.9608,2.9596,2.9595,2.9617,2.9613,2.962,2.9629,2.9629,2.9639,2.9638,2.9655,2.9656,2.9651,2.966,2.9646,2.9663,2.966,2.966,2.9657,2.9614,2.9603,2.9574,2.963,2.963,2.9629,0,2.9559,2.9565,2.9553,2.9568,2.9568,2.9564,2.9569,2.9569,2.9578,2.9585,2.9588,2.9603,2.9598,2.9615,2.9608,2.9619,2.962,2.9624,2.9623,2.9623,2.9642,2.9612,2.9565,2.9561,2.9624,2.9624,2.9625,0,2.952,2.9524,2.9518,2.9521,2.9539,2.9535,2.9542,2.9552,2.9553,2.9558,2.9559,2.9562,2.9563,2.9565,2.958,2.9591,2.9571,2.959,2.9575,2.9575,2.9569,2.9569,2.9521,2.9571,2.9571,2.9571,2.9571,0,2.9482,2.9474,2.95,2.9496,2.9488,2.9508,2.9499,2.9508,2.9516,2.9514,2.9534,2.9531,2.9551,2.955,2.9561,2.9553,2.9554,2.9559,2.9562,2.9557,2.9556,2.9556,2.9558,2.957,2.957,2.957,2.957,0,2.9436,2.9453,2.9448,2.9466,2.947,2.9463,2.9477,2.9474,2.9485,2.9482,2.9482,2.95,2.95,2.9515,2.9517,2.9525,2.9512,2.9519,2.9509,2.9511,2.9496,2.9497,2.9445,2.9439,2.9494,2.9493,2.9493,0,2.941,2.9405,2.9422,2.9423,2.9429,2.943,2.9432,2.9452,2.9453,2.9463,2.9458,2.946,2.9463,2.9461,2.9473,2.9476,2.9482,2.9464,2.9482,2.9478,2.9481,2.9481,2.948,2.946,2.9459,2.9459,2.9458,0,2.9363,2.9372,2.9375,2.9381,2.9384,2.9389,2.9396,2.9395,2.9416,2.9417,2.9418,2.942,2.9424,2.9425,2.943,2.9436,2.945,2.9453,2.9449,2.9443,2.9438,2.944,2.9498,2.9453,2.9454,2.9454,2.9454,2.9455,2.9325,2.9322,2.9334,2.9337,2.9344,2.935,2.9348,2.936,2.9362,2.9367,2.9379,2.9378,2.9387,2.9395,2.94,2.9399,2.9408,2.9403,2.9402,2.94,2.9397,2.9439,2.94,2.94,2.94,2.9401,2.9401,0,2.9278,2.9288,2.929,2.93,2.9302,2.9318,2.9326,2.9326,2.9326,2.9334,2.9337,2.9338,2.934,2.9353,2.9356,2.9352,2.9359,2.9352,2.9352,2.9353,2.9389,2.9392,2.9347,2.9347,2.9347,2.9347,2.9347,2.9347,2.9254,2.9249,2.926,2.9258,2.9268,2.9268,2.9272,2.9277,2.9284,2.9285,2.9287,2.9296,2.9306,2.931,2.9312,2.9316,2.9316,2.9307,2.9312,2.9345,2.9351,2.9355,2.9358,2.9307,2.9306,2.9276,2.9276,2.9276]}]]